This is the latest recevied weather packets stored in our database for station/object OK0BH-6. If no packets are shown the sender has not sent any weather packets the latest 10 day(s).
| Time | Temp. | Humidity | Pressure | Rain* | Wind** | Luminosity | Snow |
|---|---|---|---|---|---|---|---|
| 1777119828 | 18.89° C | 41% | 1013.8 hPa | - | - | - | - |
| 1777119253 | 18.89° C | 41% | 1014 hPa | - | - | - | - |
| 1777118678 | 18.89° C | 41% | 1014.1 hPa | - | - | - | - |
| 1777118104 | 18.89° C | 41% | 1014.3 hPa | - | - | - | - |
| 1777117529 | 18.33° C | 42% | 1014.2 hPa | - | - | - | - |
| 1777116954 | 17.78° C | 43% | 1014.4 hPa | - | - | - | - |
| 1777116379 | 17.78° C | 42% | 1014.4 hPa | - | - | - | - |
| 1777115804 | 17.22° C | 43% | 1014.4 hPa | - | - | - | - |
| 1777115229 | 17.22° C | 43% | 1014.6 hPa | - | - | - | - |
| 1777114654 | 16.67° C | 43% | 1014.8 hPa | - | - | - | - |
| 1777114079 | 16.67° C | 44% | 1014.7 hPa | - | - | - | - |
| 1777113505 | 16.11° C | 44% | 1014.8 hPa | - | - | - | - |
| 1777112930 | 15.56° C | 45% | 1014.9 hPa | - | - | - | - |
| 1777112355 | 15.56° C | 45% | 1015 hPa | - | - | - | - |
| 1777111780 | 15° C | 45% | 1015.1 hPa | - | - | - | - |
| 1777111205 | 14.44° C | 46% | 1015.1 hPa | - | - | - | - |
| 1777110630 | 14.44° C | 46% | 1015.2 hPa | - | - | - | - |
| 1777110055 | 13.89° C | 46% | 1015.2 hPa | - | - | - | - |
| 1777109480 | 13.33° C | 46% | 1015.3 hPa | - | - | - | - |
| 1777108905 | 13.33° C | 46% | 1015.4 hPa | - | - | - | - |
| 1777108331 | 12.78° C | 46% | 1015.3 hPa | - | - | - | - |
| 1777107756 | 12.78° C | 47% | 1015.6 hPa | - | - | - | - |
| 1777107181 | 12.22° C | 46% | 1015.7 hPa | - | - | - | - |
| 1777106606 | 12.22° C | 47% | 1015.7 hPa | - | - | - | - |
| 1777106031 | 11.67° C | 47% | 1015.8 hPa | - | - | - | - |
* Rain since midnight (hover to see other rain measurements)
** Current wind speed in m/s (hover to see current wind gust speed)